Jackpot

Texas Poker Multi Jackpot System

Kini Telah hadir Jackpot SUPER ROYAL FLUSH

Kini Telah hadir Jackpot 2000 (khusus table VIP keatas).

Ikutilah global jackpot yang tersedia di system kami, dengan system jackpot terbaru dan pertama di indonesia, anda dapat membeli jackpot dengan harga 100 rupiah saja dan menangkan hadiahnya hingga puluhan juta rupiah.

Jackpot bukanlah suatu keharusan untuk dibeli, namun kami memberikan suatu fitur tambahan untuk member tercinta dari www.indobet.poker.

Terdapat tiga pilihan harga jackpot yang bisa anda beli yaitu :100,500,1000 dan 2000(khusus table VIP Keatas) rupiah.

Hadiah dari Multi jackpot system www.indobet.poker

  1. full house x 10 harga jackpot yang anda beli.
      (contoh:anda membeli 1000 maka:1000 X10 = 10.000)
  2. four of kind x 250 harga jackpot yang anda beli
      (contoh:anda membeli 1000 maka:1000 X250 = 250.000)
  3. Straight flush x 1200
      (contoh:anda membeli 1000 maka:1000 X1200 = 1.200.000)
  4. Royal flush x 10000 harga jackpot yang anda beli
      (contoh:anda membeli 1000 maka:1000 X10000 = 10.000.000)
  5. SUPER ROYAL FLUSH x 30000 harga jackpot yang anda beli
      (contoh:anda membeli 1000 maka:1000 X30000 = 30.000.000)

Kondisi kartu

  1. full house adalah kondisi kartu dimana kartu anda dan kartu tengah dengan total 7 kartu bisa mendapatkan nilai 5 kartu dengan kombinasi 1 tris(three of kind) dan 1 pair, contoh 3 kartu 10 dan 2 kartu 5
  2. Four of kind adalah kondisi kartu dimana kartu anda dan kartu tengah dengan total 7 kartu bisa mendapatkan nilai 5 kartu dengan kombinasi 4 kartu yang sama jumlah dan 1 kartu apapun juga contoh anda mendapatkan 4 buah kartu angka 3 dan 1 kartu apapun.
  3. Staright flush adalah kondisi kartu dimana kartu anda dan kartu tengah dengan total 7 kartu bisa mendapatkan nilai 5 kartu dengan kombinasi seri / staright dengan kembang yang sama contoh : urutan kartu dari angka 5, 6, 7, 8 , 9 10 dengan kembang yg sama misalnya as hati
  4. Royal flush adalah kondisi kartu dimana kartu anda dan kartu tengah dengan total 7 kartu bisa mendapatkan nilai 5 kartu dengan kombinasi seri / staright dengan kembang yang sama tetapi kartu tersebut haruslah dimulai dari 10. contoh 10, Queen, Jack, King dan aces dengan kembang yang sama
  5. Super Royal flush adalah kondisi kartu dimana Kedua kartu anda digabung dengan 3 kartu pertama meja haruslah royal flush. contoh kartu anda 10,Queen kembang sama dan 3 kartu pertama meja adalah Jack, King dan aces dengan kembang yang sama

Demikian adalah penjelasan dari Multi Jackpot www.indobet.poker terima kasih dan selamat bermain salam hoki dari kami

Texas Poker Jackpot Winner

TOP SUPER ROYAL FLUSH
No.TanggalNamaPriceWin
122/06 05:29D931D25ESuper Royal flush15,000,000
222/06 00:16YAKUZA_27Super Royal flush15,000,000
321/06 23:57IZ625605Super Royal flush15,000,000
421/06 22:44RUBINI8Super Royal flush3,000,000
521/06 22:11CERKYSuper Royal flush6,000,000
TOP ROYAL FLUSH
No.TanggalNamaPriceWin
122/06 08:05RAMBO1974Royal flush2,000,000
222/06 08:00MIFSHUE004Royal flush5,000,000
322/06 07:41JERUJI00Royal flush2,000,000
422/06 07:25B6169F9BRoyal flush500,000
522/06 06:29JAWAIKA07Royal flush2,000,000
TOP STRAIGHT FLUSH
No.TanggalNamaPriceWin
122/06 08:38JUN8908Straight Flush120,000
222/06 08:37BEQE180622Straight Flush600,000
322/06 08:35JINEB87Straight Flush600,000
422/06 08:32ANGKOT009Straight Flush120,000
522/06 08:31B0C14522Straight Flush600,000
LATEST JACKPOT
No.TanggalNamaPriceWin
122/06 08:38CB8WV951FZFull House10,000
222/06 08:38T4DOJAN24Four Of A Kind250,000
322/06 08:38JUN8908Straight Flush120,000
422/06 08:38HAIR888Full House5,000
522/06 08:38KONCLEN9Full House5,000
622/06 08:38F2742023Full House1,000
722/06 08:38ORA_ORAAAFull House1,000
822/06 08:38ARMADA40Full House2,000
922/06 08:38CEPER_11Full House1,000
1022/06 08:38AGY_PRASFull House2,000
1122/06 08:38TEMPIKORETFull House5,000
1222/06 08:38RINRIN87Full House5,000
1322/06 08:38ABANGAN99Full House10,000
1422/06 08:38DONO007Full House5,000
1522/06 08:38ORANGE888Full House10,000
1622/06 08:38F2RW650ZULFull House20,000
1722/06 08:38YOYEXFull House2,000
1822/06 08:38DADENEFull House2,000
1922/06 08:38LUSIANA944Full House10,000
2022/06 08:38SLM_STY338Full House10,000
2122/06 08:38ADEL181525Full House5,000
2222/06 08:38RAFA2891Full House5,000
2322/06 08:38GUDALLE220Full House5,000
2422/06 08:37JUNGK3Y99Full House1,000
2522/06 08:37DWBT18297Full House10,000
2622/06 08:37AIDIILFull House2,000
2722/06 08:37MV219351Full House10,000
2822/06 08:37ZONAAMANFull House500
2922/06 08:37XENA015Full House10,000
3022/06 08:37EJEW12Full House10,000
3122/06 08:37PENDHOZA66Full House2,000
3222/06 08:37NGGRITA19Full House1,000
3322/06 08:37JHO2016Full House5,000
3422/06 08:37KSGJHFull House5,000
3522/06 08:37MATSKIBA01Full House5,000
3622/06 08:37MARTINY12Full House2,000
3722/06 08:37C10239A0Full House2,000
3822/06 08:37JXX212Full House2,000
3922/06 08:37P98T7XKGFUFull House1,000
4022/06 08:37ABDIRROHMAFull House5,000
4122/06 08:37VIOREN7Full House5,000
4222/06 08:37POKER6636Full House10,000
4322/06 08:37BEQE180622Straight Flush600,000
4422/06 08:37HOKIBREY57Full House1,000
4522/06 08:37BABYFACEAAFull House20,000
4622/06 08:37KITLIT66Full House500
4722/06 08:37SANDRACLOSFull House2,000
4822/06 08:37C00LCASEFull House2,000
4922/06 08:37XI961ED6JNFull House10,000
5022/06 08:37SIOMBING889Full House5,000

Domino Multi Jackpot System

Ikutilah global jackpot yang tersedia di system kami, dengan system jackpot terbaru dan pertama di indonesia, anda dapat membeli jackpot dengan harga 100 rupiah saja dan menangkan hadiahnya hingga puluhan juta rupiah.

Jackpot bukanlah suatu keharusan untuk dibeli, namun kami memberikan suatu fitur tambahan untuk member tercinta dari www.indobet.poker.

Terdapat tiga pilihan harga jackpot yang bisa anda beli yaitu :100,500 dan 1000 rupiah.

Hadiah dari Multi jackpot system www.indobet.poker

  1. Murni Kecil x 50 harga jackpot yang anda beli.
      (contoh:anda membeli 1000 maka:1000 X 50 = 50.000)
  2. Murni Besar x 50 harga jackpot yang anda beli
      (contoh:anda membeli 1000 maka:1000 X 50 = 50.000)
  3. BALAK x 100 harga jackpot yang anda beli
      (contoh:anda membeli 1000 maka:1000 X 100 = 100.000)
  4. ENAM DEWA x 6666 harga jackpot yang anda beli
      (contoh:anda membeli 1000 maka:1000 X 6666 = 6.666.000)

Demikian adalah penjelasan dari Multi Jackpot www.indobet.poker terima kasih dan selamat bermain salam hoki dari kami

Domino Jackpot Winner

TOP ENAM DEWA
No.TanggalNamaPriceWin
122/06 04:33AZHA85murni enam3,333,000
222/06 04:24AMMARRmurni enam6,666,000
322/06 04:18DEKSANGKEmurni enam6,666,000
422/06 03:51I2YXFK1OEYmurni enam3,333,000
522/06 01:19SADENG7263murni enam6,666,000
TOP BALAK
No.TanggalNamaPriceWin
122/06 08:37SJPOKER035balak10,000
222/06 08:31BAB55E6Dbalak50,000
322/06 08:25BOETONXbalak10,000
422/06 08:17NETES989balak50,000
522/06 08:14POTROCOMbalak10,000
LATEST JACKPOT
No.TanggalNamaPriceWin
122/06 08:38RAJAROYALmurni besar50,000
222/06 08:38CDCE7EDFmurni kecil50,000
322/06 08:37SJPOKER035balak10,000
422/06 08:37YAQIIIN99murni kecil50,000
522/06 08:35ERWINSYAH7murni kecil5,000
622/06 08:34ZUWARmurni kecil50,000
722/06 08:33PERKARAlucky99350,000
822/06 08:33ARGALINTONmurni kecil5,000
922/06 08:33G3SITTTTmurni kecil5,000
1022/06 08:32MONOX123_murni besar50,000
1122/06 08:31ARJUN151lucky9910,000
1222/06 08:31BAB55E6Dbalak50,000
1322/06 08:31CEKIDOT4murni kecil50,000
1422/06 08:31WINDI21murni besar50,000
1522/06 08:29BAB55E6Dmurni kecil25,000
1622/06 08:29870murni kecil5,000
1722/06 08:29TAHUSUPERmurni kecil25,000
1822/06 08:26PANENWEEDmurni kecil5,000
1922/06 08:25BOETONXbalak10,000
2022/06 08:24DE4A4A52lucky9950,000
2122/06 08:24SITAR01murni kecil25,000
2222/06 08:24KODRI018murni kecil50,000
2322/06 08:23DEWWIQQmurni besar50,000
2422/06 08:23JHONJONYmurni kecil50,000
2522/06 08:21M4RZ4Nmurni kecil50,000
2622/06 08:18HARULIlucky992,500
2722/06 08:18FRYNZ133murni kecil5,000
2822/06 08:18CLARA088lucky9910,000
2922/06 08:17GONCOEDmurni besar25,000
3022/06 08:17NETES989balak50,000
3122/06 08:17SRIKANDI84murni kecil50,000
3222/06 08:17VISILUKITOmurni kecil25,000
3322/06 08:15CLARA088murni besar25,000
3422/06 08:15ARHOMOROmurni besar5,000
3522/06 08:14POTROCOMbalak10,000
3622/06 08:12SPRKASIH99murni kecil25,000
3722/06 08:11G4DJASON99balak100,000
3822/06 08:11CULA89murni kecil25,000
3922/06 08:09AZKA104348lucky9925,000
4022/06 08:09HERI77ANDAmurni besar50,000
4122/06 08:06BUNGALEmurni kecil5,000
4222/06 08:05ANDI67murni besar25,000
4322/06 08:05SAUCY88murni besar50,000
4422/06 08:05KAMINImurni kecil50,000
4522/06 08:05INARYANTOmurni besar50,000
4622/06 08:02SOEX46balak100,000
4722/06 08:00AYUNET88murni kecil25,000
4822/06 07:59CWR6UKHZLIbalak100,000
4922/06 07:59ARDYREPLAYmurni kecil5,000
5022/06 07:52LUBODOYOlucky9950,000

Ceme Multi Jackpot System

Jackpot dilihat dari gabungan kartu pemain dengan kartu bandar. Bandar harus membeli jackpot sebanyak jumlah player yang sedang duduk. Sebagai contoh bila terdapat 3 pemain duduk bermain, dan bandar memutuskan untuk membeli jackpot Rp 1.000, maka pada periode tersebut bandar akan membeli jackpot sebanyak 3xRp1.000 = Rp3.000.

Jackpot bukanlah suatu keharusan untuk dibeli, namun kami memberikan suatu fitur tambahan untuk member tercinta dari www.indobet.poker.

Terdapat tiga pilihan harga jackpot yang bisa anda beli yaitu :100,500 dan 1000 rupiah.

Hadiah dari Multi jackpot system www.indobet.poker

  1. Murni Kecil x 50 harga jackpot yang anda beli.
      (contoh:anda membeli 1000 maka:1000 X 50 = 50.000)
  2. Murni Besar x 50 harga jackpot yang anda beli
      (contoh:anda membeli 1000 maka:1000 X 50 = 50.000)
  3. BALAK x 200 harga jackpot yang anda beli
      (contoh:anda membeli 1000 maka:1000 X 200 = 200.000)
  4. ENAM DEWA x 6666 harga jackpot yang anda beli
      (contoh:anda membeli 1000 maka:1000 X 6666 = 6.666.000)

Demikian adalah penjelasan dari Multi Jackpot www.indobet.poker terima kasih dan selamat bermain salam hoki dari kami

Ceme Jackpot Winner

TOP ENAM DEWA
No.TanggalNamaPriceWin
122/06 08:01ANDREASADImurni enam6,666,000
222/06 07:57XGEARPLATKmurni enam3,333,000
322/06 07:53KANDEM81murni enam666,600
422/06 07:10IDUTEAmurni enam6,666,000
522/06 06:54DN4DTUYULmurni enam6,666,000
TOP BALAK
No.TanggalNamaPriceWin
122/06 08:38YUSUF095balak200,000
222/06 08:38YUSUF095balak200,000
322/06 08:38PEKADE86balak20,000
422/06 08:36IDNGAN21balak200,000
522/06 08:36NUROKTAVIAbalak200,000
LATEST JACKPOT
No.TanggalNamaPriceWin
122/06 08:38A68ANG8206991murni kecil50,000
222/06 08:38ALLMmurni besar50,000
322/06 08:38LB994592murni kecil25,000
422/06 08:38YUSUF095balak200,000
522/06 08:38YUSUF095balak200,000
622/06 08:38PEKADE86balak20,000
722/06 08:37KENTUT110murni kecil50,000
822/06 08:37RANDIBAYmurni besar5,000
922/06 08:37SAIFUL16murni besar50,000
1022/06 08:37SBY6FVSZVMmurni kecil50,000
1122/06 08:36WAHYUJAMmurni besar25,000
1222/06 08:36PAKBER12murni kecil50,000
1322/06 08:36REAL1985murni kecil50,000
1422/06 08:36DEBBY155murni kecil5,000
1522/06 08:36IDNGAN21balak200,000
1622/06 08:36BREJOT32murni kecil50,000
1722/06 08:36NUROKTAVIAbalak200,000
1822/06 08:36A68ANG8206991murni besar50,000
1922/06 08:36DWBTTRA181murni besar50,000
2022/06 08:36BANG_OIT7murni kecil50,000
2122/06 08:36KANSAS1001murni kecil50,000
2222/06 08:36LANDJAVAmurni kecil50,000
2322/06 08:36DWBTREVA80murni kecil5,000
2422/06 08:35B1465SIRmurni kecil50,000
2522/06 08:35ONEDEALmurni kecil5,000
2622/06 08:35C86EEABEmurni besar50,000
2722/06 08:35MOVMRKZ61Lmurni besar50,000
2822/06 08:34CODE8181murni kecil50,000
2922/06 08:34JACKANNA8murni kecil25,000
3022/06 08:34ZCNC5XB3C1murni kecil50,000
3122/06 08:34REDJECKmurni kecil5,000
3222/06 08:34KHEI90murni kecil50,000
3322/06 08:34BA423369balak100,000
3422/06 08:34MYLUCKY0murni kecil50,000
3522/06 08:34WINNERBEEmurni besar50,000
3622/06 08:34SLUPUT88murni kecil25,000
3722/06 08:34BXG44G11BDmurni kecil25,000
3822/06 08:34YUDAY007murni kecil25,000
3922/06 08:33IDAMANJAYmurni kecil50,000
4022/06 08:33DEWALABETmurni kecil50,000
4122/06 08:33JSMPNCK86murni besar50,000
4222/06 08:33NUROKTAVIAmurni besar50,000
4322/06 08:33KHEI90balak200,000
4422/06 08:33WIDI010596murni kecil50,000
4522/06 08:32WATUMEmurni besar50,000
4622/06 08:32SIENTA333murni kecil50,000
4722/06 08:31KROUAmurni besar50,000
4822/06 08:31BANG_OIT7balak200,000
4922/06 08:31REOKGENDENbalak20,000
5022/06 08:31WATUMEmurni besar50,000